WZZ148 LHBP-BIKF

Flight info

Callsign WZZ148
Flight time 4h 26m
Altitude 34000
Route BADOV DCT MAVOR DCT KATQA DCT ODLIV DCT HDO M748 ESIKA DCT BUMIL DCT ATTUS DCT KARLI DCT ORVIK DCT PEMOS DCT MY DCT ING DCT NASBU NASBU5N
Aircraft A321/M-SDE1E2E3FGIJ1J4RWXY/LB1

Departure

Time 2026-05-04 11:48
Airport Budapest Liszt Ferenc International Airport (LHBP)

Arrival

Time 2026-05-04 16:14
Airport Keflavik International Airport (BIKF)
Time Latitude Longitude Altitude Speed Heading
2026-05-04 11:05 47.43390 19.25601 458 ft 0 kts 312°
2026-05-04 11:36 47.43388 19.25604 457 ft 3 kts 313°
2026-05-04 11:36 47.43369 19.25628 454 ft 4 kts 343°
2026-05-04 11:36 47.43346 19.25628 454 ft 4 kts 29°
2026-05-04 11:36 47.43332 19.25614 455 ft 0 kts 42°
2026-05-04 11:43 47.43334 19.25616 484 ft 1 kts 42°
2026-05-04 11:43 47.43341 19.25627 457 ft 2 kts 42°
2026-05-04 11:43 47.43358 19.25649 456 ft 4 kts 42°
2026-05-04 11:43 47.43387 19.25689 455 ft 8 kts 42°
2026-05-04 11:44 47.43433 19.25751 456 ft 9 kts 42°
2026-05-04 11:44 47.43486 19.25794 457 ft 9 kts 343°
2026-05-04 11:44 47.43534 19.25731 457 ft 10 kts 313°
2026-05-04 11:44 47.43593 19.25727 457 ft 9 kts 30°
2026-05-04 11:45 47.43647 19.25794 457 ft 12 kts 41°
2026-05-04 11:45 47.43718 19.25888 457 ft 14 kts 42°
2026-05-04 11:45 47.43793 19.25989 456 ft 15 kts 42°
2026-05-04 11:45 47.43870 19.26093 457 ft 15 kts 42°
2026-05-04 11:46 47.43947 19.26197 458 ft 15 kts 42°
2026-05-04 11:46 47.44021 19.26296 461 ft 13 kts 43°
2026-05-04 11:46 47.44063 19.26383 468 ft 6 kts 66°
2026-05-04 11:46 47.44066 19.26433 470 ft 5 kts 85°
2026-05-04 11:47 47.44069 19.26481 471 ft 5 kts 85°
2026-05-04 11:47 47.44056 19.26536 469 ft 6 kts 133°
2026-05-04 11:47 47.44018 19.26604 469 ft 15 kts 131°
2026-05-04 11:47 47.43853 19.26869 472 ft 66 kts 132°
2026-05-04 11:48 47.43407 19.27591 468 ft 126 kts 132°
2026-05-04 11:48 47.42689 19.28713 545 ft 166 kts 135°
2026-05-04 11:48 47.41947 19.30000 1180 ft 164 kts 123°
2026-05-04 11:48 47.41392 19.31457 1838 ft 165 kts 122°
2026-05-04 11:49 47.40865 19.32940 2633 ft 158 kts 122°
2026-05-04 11:49 47.40330 19.34330 3247 ft 155 kts 124°
2026-05-04 11:49 47.39812 19.35710 3757 ft 154 kts 123°
2026-05-04 11:49 47.39262 19.37179 3927 ft 174 kts 123°
2026-05-04 11:50 47.38659 19.38866 4137 ft 198 kts 113°
2026-05-04 11:50 47.38603 19.41003 4313 ft 227 kts 74°
2026-05-04 11:50 47.39591 19.42936 4470 ft 253 kts 33°
2026-05-04 11:50 47.41341 19.43664 4705 ft 274 kts 355°
2026-05-04 11:51 47.43154 19.42806 5214 ft 279 kts 326°
2026-05-04 11:51 47.44762 19.41189 5943 ft 282 kts 323°
2026-05-04 11:51 47.46378 19.39534 6735 ft 283 kts 324°
2026-05-04 11:51 47.48006 19.37871 7446 ft 286 kts 324°
2026-05-04 11:52 47.49641 19.36198 8069 ft 289 kts 324°
2026-05-04 11:52 47.51307 19.34490 8736 ft 293 kts 324°
2026-05-04 11:52 47.52995 19.32754 9433 ft 297 kts 324°
2026-05-04 11:52 47.54707 19.30991 10085 ft 301 kts 324°
2026-05-04 11:53 47.56453 19.29189 10428 ft 316 kts 324°
2026-05-04 11:53 47.58319 19.27263 10563 ft 337 kts 324°
2026-05-04 11:53 47.60295 19.25221 10725 ft 355 kts 324°
2026-05-04 11:53 47.62333 19.23113 11200 ft 362 kts 324°
2026-05-04 11:55 47.77131 19.07766 15354 ft 379 kts 325°
2026-05-04 11:55 47.79301 19.05506 15916 ft 381 kts 325°
2026-05-04 11:56 47.81477 19.03233 16481 ft 383 kts 325°
2026-05-04 11:56 47.83666 19.00947 17032 ft 386 kts 325°
2026-05-04 11:56 47.85883 18.98631 17584 ft 388 kts 325°
2026-05-04 11:56 47.88100 18.96314 18138 ft 391 kts 325°
2026-05-04 11:57 47.90330 18.93979 18634 ft 393 kts 325°
2026-05-04 11:57 47.92571 18.91627 19115 ft 395 kts 324°
2026-05-04 11:57 47.94822 18.89260 19585 ft 397 kts 324°
2026-05-04 11:57 47.97081 18.86880 20060 ft 399 kts 324°
2026-05-04 11:58 47.99358 18.84484 20556 ft 401 kts 324°
2026-05-04 11:58 48.01628 18.82042 21016 ft 403 kts 320°
2026-05-04 11:58 48.03680 18.79171 21473 ft 405 kts 313°
2026-05-04 11:58 48.05636 18.76113 21929 ft 408 kts 313°
2026-05-04 11:59 48.07599 18.73040 22370 ft 410 kts 313°
2026-05-04 11:59 48.09594 18.69909 22807 ft 412 kts 313°
2026-05-04 11:59 48.11548 18.66842 23226 ft 414 kts 313°
2026-05-04 11:59 48.13541 18.63711 23630 ft 416 kts 313°
2026-05-04 12:00 48.15572 18.60523 23994 ft 418 kts 313°
2026-05-04 12:00 48.17558 18.57408 24343 ft 420 kts 313°
2026-05-04 12:00 48.19606 18.54195 24708 ft 421 kts 313°
2026-05-04 12:00 48.21604 18.51049 25056 ft 423 kts 313°
2026-05-04 12:01 48.23659 18.47807 25411 ft 424 kts 313°
2026-05-04 12:01 48.25670 18.44626 25754 ft 426 kts 313°
2026-05-04 12:02 48.37341 18.26102 27646 ft 434 kts 313°
2026-05-04 12:03 48.40091 18.21716 28063 ft 436 kts 313°
2026-05-04 12:03 48.41501 18.19466 28261 ft 437 kts 313°
2026-05-04 12:03 48.43591 18.16129 28551 ft 439 kts 312°
2026-05-04 12:03 48.46370 18.11691 28941 ft 441 kts 312°
2026-05-04 12:04 48.47790 18.09418 29156 ft 442 kts 312°
2026-05-04 12:04 48.50584 18.04935 29543 ft 444 kts 312°
2026-05-04 12:04 48.52016 18.02636 29735 ft 445 kts 312°
2026-05-04 12:04 48.54135 17.99231 30093 ft 445 kts 312°
2026-05-04 12:05 48.56247 17.95827 30458 ft 443 kts 312°
2026-05-04 12:05 48.58345 17.92436 30832 ft 442 kts 312°
2026-05-04 12:05 48.60435 17.89052 31176 ft 441 kts 312°
2026-05-04 12:05 48.62524 17.85669 31500 ft 440 kts 312°
2026-05-04 12:06 48.64610 17.82290 31846 ft 438 kts 312°
2026-05-04 12:06 48.66685 17.78930 32186 ft 437 kts 312°
2026-05-04 12:06 48.68758 17.75568 32516 ft 436 kts 312°
2026-05-04 12:06 48.70827 17.72214 32843 ft 435 kts 312°
2026-05-04 12:07 48.72889 17.68864 33168 ft 434 kts 312°
2026-05-04 12:07 48.74916 17.65563 33504 ft 433 kts 312°
2026-05-04 12:07 48.76988 17.62185 33817 ft 432 kts 312°
2026-05-04 12:07 48.79031 17.58846 34016 ft 432 kts 312°
2026-05-04 12:08 48.83081 17.52254 34038 ft 429 kts 313°
2026-05-04 12:08 48.87317 17.45859 34035 ft 430 kts 315°
2026-05-04 12:09 48.91642 17.39600 34036 ft 430 kts 315°
2026-05-04 12:09 48.95946 17.33288 34031 ft 430 kts 314°
2026-05-04 12:10 49.00214 17.26912 34029 ft 430 kts 314°
2026-05-04 12:10 49.04452 17.20488 34028 ft 430 kts 313°
2026-05-04 12:11 49.08629 17.13961 34025 ft 430 kts 313°
2026-05-04 12:11 49.12805 17.07400 34027 ft 431 kts 313°
2026-05-04 12:12 49.16995 17.00841 34030 ft 432 kts 313°
2026-05-04 12:12 49.21195 16.94270 34029 ft 432 kts 313°
2026-05-04 12:14 49.37972 16.67825 34035 ft 433 kts 312°
2026-05-04 12:15 49.42167 16.61177 34026 ft 433 kts 312°
2026-05-04 12:15 49.46355 16.54512 34031 ft 433 kts 312°
2026-05-04 12:16 49.50542 16.47835 34035 ft 434 kts 312°
2026-05-04 12:16 49.54721 16.41149 34040 ft 434 kts 312°
2026-05-04 12:17 49.58899 16.34450 34040 ft 433 kts 312°
2026-05-04 12:17 49.63072 16.27742 34036 ft 433 kts 312°
2026-05-04 12:18 49.67205 16.21079 34033 ft 432 kts 312°
2026-05-04 12:18 49.71358 16.14371 34032 ft 432 kts 312°
2026-05-04 12:19 49.75502 16.07658 34040 ft 431 kts 312°
2026-05-04 12:19 49.79638 16.00937 34028 ft 431 kts 311°
2026-05-04 12:20 49.83762 15.94207 34023 ft 431 kts 311°
2026-05-04 12:20 49.87882 15.87471 34022 ft 430 kts 311°
2026-05-04 12:21 49.91991 15.80742 34022 ft 430 kts 311°
2026-05-04 12:21 49.96105 15.74000 34020 ft 429 kts 311°
2026-05-04 12:22 50.00199 15.67255 34022 ft 429 kts 311°
2026-05-04 12:22 50.04284 15.60492 34020 ft 429 kts 311°
2026-05-04 12:23 50.08368 15.53737 34020 ft 428 kts 311°
2026-05-04 12:23 50.12448 15.46977 34023 ft 428 kts 311°
2026-05-04 12:24 50.16520 15.40200 34019 ft 428 kts 311°
2026-05-04 12:24 50.20583 15.33420 34021 ft 427 kts 310°
2026-05-04 12:25 50.24639 15.26636 34025 ft 427 kts 310°
2026-05-04 12:25 50.28691 15.19842 34022 ft 427 kts 310°
2026-05-04 12:26 50.32733 15.13039 34025 ft 427 kts 310°
2026-05-04 12:26 50.36772 15.06231 34015 ft 427 kts 310°
2026-05-04 12:27 50.40805 14.99409 34015 ft 426 kts 310°
2026-05-04 12:27 50.44806 14.92618 34016 ft 426 kts 310°
2026-05-04 12:28 50.48967 14.85980 34007 ft 429 kts 318°
2026-05-04 12:28 50.53841 14.80514 34011 ft 431 kts 321°
2026-05-04 12:29 50.58748 14.75082 34005 ft 432 kts 321°
2026-05-04 12:29 50.63651 14.69624 34003 ft 432 kts 321°
2026-05-04 12:30 50.68552 14.64137 34000 ft 432 kts 321°
2026-05-04 12:30 50.73459 14.58651 34005 ft 433 kts 321°
2026-05-04 12:31 50.78371 14.53161 34001 ft 433 kts 321°
2026-05-04 12:31 50.83288 14.47653 33997 ft 433 kts 321°
2026-05-04 12:32 50.90640 14.39344 33997 ft 433 kts 321°
2026-05-04 12:33 50.95340 14.33432 33995 ft 430 kts 315°
2026-05-04 12:33 50.99869 14.27218 33995 ft 430 kts 315°
2026-05-04 12:34 51.04390 14.20984 33999 ft 430 kts 315°
2026-05-04 12:34 51.08911 14.14742 34003 ft 430 kts 315°
2026-05-04 12:35 51.13432 14.08482 34000 ft 430 kts 315°
2026-05-04 12:35 51.17942 14.02215 34000 ft 430 kts 314°
2026-05-04 12:36 51.22446 13.95949 34003 ft 430 kts 314°
2026-05-04 12:36 51.26950 13.89686 34001 ft 429 kts 314°
2026-05-04 12:37 51.31445 13.83408 34001 ft 429 kts 314°
2026-05-04 12:37 51.35926 13.77109 34003 ft 429 kts 314°
2026-05-04 12:38 51.40406 13.70804 34004 ft 429 kts 314°
2026-05-04 12:38 51.44877 13.64488 34001 ft 428 kts 314°
2026-05-04 12:39 51.49348 13.58166 33997 ft 428 kts 314°
2026-05-04 12:39 51.53818 13.51849 33999 ft 428 kts 314°
2026-05-04 12:40 51.58271 13.45516 33997 ft 427 kts 313°
2026-05-04 12:40 51.62718 13.39169 33998 ft 427 kts 313°
2026-05-04 12:41 51.67162 13.32818 34005 ft 427 kts 313°
2026-05-04 12:41 51.71579 13.26493 33999 ft 427 kts 313°
2026-05-04 12:42 51.76014 13.20109 33997 ft 427 kts 313°
2026-05-04 12:42 51.80444 13.13701 33986 ft 428 kts 313°
2026-05-04 12:43 51.84879 13.07296 33988 ft 428 kts 313°
2026-05-04 12:43 51.89310 13.00875 33988 ft 428 kts 313°
2026-05-04 12:44 51.93736 12.94435 33988 ft 428 kts 313°
2026-05-04 12:44 51.98165 12.87982 33986 ft 428 kts 312°
2026-05-04 12:45 52.02585 12.81514 33982 ft 428 kts 312°
2026-05-04 12:45 52.07011 12.75039 33984 ft 428 kts 312°
2026-05-04 12:46 52.11429 12.68542 33983 ft 428 kts 312°
2026-05-04 12:46 52.15916 12.62146 33991 ft 430 kts 314°
2026-05-04 12:47 52.20550 12.55969 33988 ft 430 kts 315°
2026-05-04 12:47 52.25195 12.49805 33986 ft 430 kts 314°
2026-05-04 12:48 52.29798 12.43572 33987 ft 430 kts 314°
2026-05-04 12:48 52.34377 12.37297 33990 ft 430 kts 314°
2026-05-04 12:49 52.38963 12.31002 33988 ft 430 kts 314°
2026-05-04 12:49 52.43510 12.24754 33992 ft 430 kts 314°
2026-05-04 12:50 52.48089 12.18451 33997 ft 430 kts 314°
2026-05-04 12:50 52.52665 12.12148 34004 ft 429 kts 313°
2026-05-04 12:51 52.57241 12.05834 34002 ft 429 kts 313°
2026-05-04 12:51 52.61060 12.00546 34002 ft 428 kts 313°
2026-05-04 12:52 52.65609 11.94210 34003 ft 428 kts 313°
2026-05-04 12:52 52.70145 11.87873 34004 ft 427 kts 313°
2026-05-04 12:53 52.74676 11.81530 34000 ft 427 kts 313°
2026-05-04 12:53 52.79192 11.75190 33997 ft 426 kts 313°
2026-05-04 12:54 52.83676 11.68878 33983 ft 426 kts 312°
2026-05-04 12:54 52.88181 11.62522 33995 ft 425 kts 312°
2026-05-04 12:55 52.92679 11.56160 33987 ft 425 kts 312°
2026-05-04 12:55 52.97177 11.49788 33990 ft 425 kts 312°
2026-05-04 12:56 53.01678 11.43394 33990 ft 426 kts 312°
2026-05-04 12:56 53.06175 11.36981 33989 ft 426 kts 312°
2026-05-04 12:57 53.10670 11.30535 33989 ft 427 kts 312°
2026-05-04 12:57 53.15215 11.24150 33980 ft 428 kts 314°
2026-05-04 12:58 53.19892 11.17990 33986 ft 429 kts 315°
2026-05-04 12:58 53.24587 11.11836 33985 ft 429 kts 314°
2026-05-04 12:59 53.29252 11.05616 33988 ft 429 kts 314°
2026-05-04 12:59 53.33892 10.99356 33989 ft 429 kts 314°
2026-05-04 13:00 53.38529 10.93079 33993 ft 429 kts 314°
2026-05-04 13:00 53.43175 10.86799 33994 ft 429 kts 314°
2026-05-04 13:01 53.47817 10.80504 33999 ft 429 kts 314°
2026-05-04 13:01 53.52448 10.74204 34010 ft 428 kts 314°
2026-05-04 13:02 53.57073 10.67901 34016 ft 428 kts 314°
2026-05-04 13:02 53.61685 10.61584 34017 ft 428 kts 314°
2026-05-04 13:03 53.66300 10.55249 34024 ft 428 kts 314°
2026-05-04 13:03 53.70913 10.48908 34024 ft 428 kts 314°
2026-05-04 13:04 53.75518 10.42550 34025 ft 428 kts 314°
2026-05-04 13:04 53.80122 10.36175 34021 ft 428 kts 314°
2026-05-04 13:05 53.84723 10.29793 34023 ft 428 kts 313°
2026-05-04 13:05 53.89287 10.23438 34013 ft 428 kts 313°
2026-05-04 13:06 53.93881 10.17016 34008 ft 428 kts 313°
2026-05-04 13:06 53.98472 10.10566 34007 ft 428 kts 313°
2026-05-04 13:07 54.03068 10.04112 34010 ft 429 kts 313°
2026-05-04 13:07 54.07665 9.97632 34015 ft 429 kts 313°
2026-05-04 13:08 54.12265 9.91136 34021 ft 430 kts 313°
2026-05-04 13:08 54.16864 9.84618 34022 ft 430 kts 313°
2026-05-04 13:09 54.21468 9.78081 34026 ft 430 kts 314°
2026-05-04 13:09 54.26068 9.71532 34031 ft 430 kts 314°
2026-05-04 13:10 54.30661 9.64960 34028 ft 430 kts 314°
2026-05-04 13:10 54.35242 9.58378 34031 ft 430 kts 314°
2026-05-04 13:11 54.39824 9.51787 34030 ft 430 kts 314°
2026-05-04 13:11 54.44369 9.45236 34031 ft 429 kts 314°
2026-05-04 13:12 54.48933 9.38622 34041 ft 429 kts 314°
2026-05-04 13:12 54.53489 9.32001 34038 ft 429 kts 314°
2026-05-04 13:13 54.58044 9.25374 34030 ft 428 kts 314°
2026-05-04 13:13 54.62585 9.18740 34034 ft 428 kts 315°
2026-05-04 13:14 54.67125 9.12087 34034 ft 428 kts 315°
2026-05-04 13:14 54.71668 9.05424 34022 ft 428 kts 315°
2026-05-04 13:15 54.76199 8.98747 34023 ft 428 kts 315°
2026-05-04 13:15 54.80713 8.92046 34023 ft 427 kts 315°
2026-05-04 13:16 54.85228 8.85325 34031 ft 428 kts 315°
2026-05-04 13:16 54.89754 8.78611 34037 ft 428 kts 316°
2026-05-04 13:17 54.94310 8.71946 34039 ft 428 kts 316°
2026-05-04 13:17 54.98895 8.65320 34041 ft 429 kts 317°
2026-05-04 13:18 55.03479 8.58666 34041 ft 429 kts 317°
2026-05-04 13:18 55.08049 8.51978 34045 ft 429 kts 317°
2026-05-04 13:19 55.12616 8.45262 34044 ft 429 kts 317°
2026-05-04 13:19 55.17183 8.38517 34040 ft 430 kts 317°
2026-05-04 13:20 55.21759 8.31765 34035 ft 431 kts 317°
2026-05-04 13:20 55.26343 8.25000 34030 ft 431 kts 317°
2026-05-04 13:21 55.30922 8.18190 34028 ft 432 kts 317°
2026-05-04 13:21 55.35501 8.11357 34031 ft 432 kts 317°
2026-05-04 13:22 55.40085 8.04498 34033 ft 433 kts 318°
2026-05-04 13:22 55.44666 7.97611 34035 ft 433 kts 318°
2026-05-04 13:23 55.49246 7.90699 34037 ft 434 kts 318°
2026-05-04 13:23 55.53834 7.83785 34041 ft 434 kts 318°
2026-05-04 13:24 55.58420 7.76842 34041 ft 434 kts 318°
2026-05-04 13:24 55.62972 7.69938 34043 ft 434 kts 318°
2026-05-04 13:25 55.69826 7.59489 34044 ft 433 kts 318°
2026-05-04 13:25 55.74386 7.52499 34040 ft 433 kts 318°
2026-05-04 13:26 55.78945 7.45505 34041 ft 433 kts 319°
2026-05-04 13:26 55.83493 7.38504 34042 ft 432 kts 318°
2026-05-04 13:27 55.88028 7.31481 34043 ft 432 kts 318°
2026-05-04 13:27 55.92559 7.24439 34044 ft 432 kts 318°
2026-05-04 13:28 55.97080 7.17396 34041 ft 431 kts 318°
2026-05-04 13:28 56.01596 7.10348 34041 ft 431 kts 318°
2026-05-04 13:29 56.06099 7.03293 34042 ft 430 kts 318°
2026-05-04 13:29 56.10591 6.96233 34045 ft 429 kts 317°
2026-05-04 13:30 56.15070 6.89166 34043 ft 429 kts 317°
2026-05-04 13:30 56.19537 6.82091 34038 ft 428 kts 317°
2026-05-04 13:31 56.23996 6.75007 34038 ft 427 kts 317°
2026-05-04 13:31 56.28448 6.67933 34034 ft 427 kts 317°
2026-05-04 13:32 56.32889 6.60845 34031 ft 426 kts 317°
2026-05-04 13:32 56.37318 6.53742 34031 ft 426 kts 317°
2026-05-04 13:33 56.41734 6.46632 34031 ft 425 kts 316°
2026-05-04 13:33 56.46116 6.39566 34033 ft 424 kts 316°
2026-05-04 13:34 56.50517 6.32451 34031 ft 424 kts 316°
2026-05-04 13:34 56.54903 6.25326 34030 ft 423 kts 316°
2026-05-04 13:35 56.61496 6.14574 34030 ft 422 kts 316°
2026-05-04 13:36 56.65828 6.07484 34028 ft 422 kts 316°
2026-05-04 13:36 56.69481 6.01497 34024 ft 421 kts 316°
2026-05-04 13:37 56.74528 5.93187 34022 ft 421 kts 315°
2026-05-04 13:37 56.78863 5.86027 34029 ft 420 kts 315°
2026-05-04 13:38 56.83190 5.78861 34027 ft 420 kts 315°
2026-05-04 13:38 56.86804 5.72848 34031 ft 419 kts 315°
2026-05-04 13:39 56.91109 5.65667 34030 ft 419 kts 315°
2026-05-04 13:39 56.95402 5.58471 34028 ft 418 kts 315°
2026-05-04 13:40 56.99689 5.51267 34030 ft 418 kts 315°
2026-05-04 13:40 57.04000 5.44108 34032 ft 418 kts 315°
2026-05-04 13:41 57.08317 5.36988 34031 ft 417 kts 315°
2026-05-04 13:41 57.12594 5.29901 34030 ft 416 kts 315°
2026-05-04 13:42 57.19033 5.19211 34025 ft 415 kts 315°
2026-05-04 13:42 57.23304 5.12062 34020 ft 414 kts 315°
2026-05-04 13:43 57.27566 5.04896 34020 ft 414 kts 314°
2026-05-04 13:43 57.31819 4.97726 34016 ft 414 kts 314°
2026-05-04 13:44 57.36067 4.90535 34008 ft 413 kts 314°
2026-05-04 13:44 57.40305 4.83342 34013 ft 413 kts 314°
2026-05-04 13:45 57.44533 4.76157 34015 ft 412 kts 314°
2026-05-04 13:45 57.48762 4.68972 34010 ft 412 kts 314°
2026-05-04 13:46 57.52973 4.61763 34017 ft 411 kts 314°
2026-05-04 13:46 57.57163 4.54544 34016 ft 410 kts 314°
2026-05-04 13:47 57.61349 4.47331 34015 ft 409 kts 314°
2026-05-04 13:47 57.65525 4.40122 34015 ft 408 kts 314°
2026-05-04 13:48 57.69681 4.32905 34012 ft 407 kts 313°
2026-05-04 13:48 57.73823 4.25679 34013 ft 406 kts 313°
2026-05-04 13:49 57.77956 4.18471 34005 ft 406 kts 313°
2026-05-04 13:49 57.82049 4.11310 34000 ft 405 kts 313°
2026-05-04 13:50 57.86158 4.04093 34000 ft 404 kts 313°
2026-05-04 13:50 57.90262 3.96869 34004 ft 404 kts 313°
2026-05-04 13:51 57.94353 3.89639 33998 ft 403 kts 313°
2026-05-04 13:51 57.98430 3.82400 34001 ft 403 kts 313°
2026-05-04 13:52 58.04533 3.71527 34005 ft 402 kts 313°
2026-05-04 13:53 58.08587 3.64276 33997 ft 401 kts 313°
2026-05-04 13:53 58.12629 3.57023 33996 ft 400 kts 313°
2026-05-04 13:54 58.18664 3.46132 33984 ft 399 kts 312°
2026-05-04 13:55 58.24663 3.35244 33986 ft 398 kts 312°
2026-05-04 13:55 58.28684 3.27911 34413 ft 401 kts 312°
2026-05-04 13:55 58.30700 3.24230 34653 ft 402 kts 312°
2026-05-04 13:56 58.32721 3.20549 34880 ft 403 kts 312°
2026-05-04 13:56 58.34744 3.16862 35108 ft 404 kts 312°
2026-05-04 13:56 58.38800 3.09433 35564 ft 405 kts 312°
2026-05-04 13:57 58.40829 3.05708 35778 ft 406 kts 311°
2026-05-04 13:57 58.42864 3.01959 35920 ft 407 kts 311°
2026-05-04 13:58 58.48962 2.90665 35939 ft 407 kts 311°
2026-05-04 13:58 58.55019 2.79402 35938 ft 406 kts 311°
2026-05-04 13:59 58.59063 2.71856 35936 ft 406 kts 311°
2026-05-04 14:00 58.65125 2.60508 35949 ft 406 kts 311°
2026-05-04 14:00 58.71179 2.49128 35952 ft 406 kts 311°
2026-05-04 14:01 58.75199 2.41504 35954 ft 406 kts 311°
2026-05-04 14:02 58.81229 2.30040 35956 ft 405 kts 311°
2026-05-04 14:02 58.85240 2.22389 35958 ft 405 kts 311°
2026-05-04 14:03 58.89243 2.14749 35960 ft 404 kts 311°
2026-05-04 14:03 58.93229 2.07088 35963 ft 404 kts 310°
2026-05-04 14:04 58.99197 1.95575 35966 ft 403 kts 310°
2026-05-04 14:04 59.03165 1.87893 35970 ft 403 kts 310°
2026-05-04 14:05 59.09094 1.76347 35971 ft 402 kts 310°
2026-05-04 14:06 59.13040 1.68640 35974 ft 402 kts 310°
2026-05-04 14:06 59.16975 1.60909 35974 ft 402 kts 310°
2026-05-04 14:07 59.20906 1.53172 35985 ft 401 kts 310°
2026-05-04 14:07 59.24835 1.45417 35992 ft 401 kts 310°
2026-05-04 14:08 59.28759 1.37654 35988 ft 401 kts 310°
2026-05-04 14:08 59.32671 1.29866 35982 ft 401 kts 310°
2026-05-04 14:09 59.38527 1.18166 35998 ft 401 kts 310°
2026-05-04 14:10 59.44354 1.06480 36004 ft 401 kts 309°
2026-05-04 14:10 59.48248 0.98637 36004 ft 401 kts 309°
2026-05-04 14:11 59.52138 0.90764 36008 ft 401 kts 309°
2026-05-04 14:11 59.57970 0.78926 36011 ft 401 kts 309°
2026-05-04 14:12 59.61834 0.71007 36007 ft 400 kts 309°
2026-05-04 14:13 59.66733 0.57938 36006 ft 393 kts 299°
2026-05-04 14:13 59.69655 0.48786 36002 ft 393 kts 299°
2026-05-04 14:14 59.72568 0.39621 36003 ft 393 kts 299°
2026-05-04 14:14 59.76948 0.25862 36001 ft 393 kts 299°
2026-05-04 14:15 59.82757 0.07445 36011 ft 393 kts 298°
2026-05-04 14:16 59.87092 -0.06415 36015 ft 393 kts 298°
2026-05-04 14:17 59.91400 -0.20226 36015 ft 393 kts 298°
2026-05-04 14:18 59.95706 -0.34148 36014 ft 393 kts 298°
2026-05-04 14:19 60.01413 -0.52760 36019 ft 393 kts 298°
2026-05-04 14:19 60.04259 -0.62084 36024 ft 393 kts 298°
2026-05-04 14:20 60.07098 -0.71421 36026 ft 393 kts 298°
2026-05-04 14:20 60.09934 -0.80767 36025 ft 392 kts 298°
2026-05-04 14:21 60.14170 -0.94810 36027 ft 392 kts 298°
2026-05-04 14:21 60.16984 -1.04194 36025 ft 392 kts 298°
2026-05-04 14:22 60.19791 -1.13590 36023 ft 392 kts 297°
2026-05-04 14:22 60.22593 -1.22999 36026 ft 392 kts 297°
2026-05-04 14:23 60.26772 -1.37139 36024 ft 392 kts 297°
2026-05-04 14:24 60.29550 -1.46590 36028 ft 392 kts 297°
2026-05-04 14:24 60.32322 -1.56040 36029 ft 391 kts 297°
2026-05-04 14:25 60.34638 -1.63962 36027 ft 391 kts 297°
2026-05-04 14:25 60.38770 -1.78171 36033 ft 391 kts 297°
2026-05-04 14:26 60.41499 -1.87615 36039 ft 391 kts 297°
2026-05-04 14:26 60.44242 -1.97139 36042 ft 391 kts 297°
2026-05-04 14:27 60.46975 -2.06675 36046 ft 391 kts 297°
2026-05-04 14:27 60.49698 -2.16220 36046 ft 391 kts 297°
2026-05-04 14:28 60.52416 -2.25786 36048 ft 391 kts 297°
2026-05-04 14:28 60.55131 -2.35357 36051 ft 391 kts 297°
2026-05-04 14:29 60.60534 -2.54539 36050 ft 391 kts 297°
2026-05-04 14:30 60.63224 -2.64154 36055 ft 390 kts 296°
2026-05-04 14:31 60.67242 -2.78590 36056 ft 390 kts 296°
2026-05-04 14:32 60.72566 -2.97895 36056 ft 390 kts 296°
2026-05-04 14:32 60.75222 -3.07576 36057 ft 390 kts 296°
2026-05-04 14:33 60.77865 -3.17280 36057 ft 390 kts 296°
2026-05-04 14:33 60.80502 -3.26982 36062 ft 390 kts 296°
2026-05-04 14:34 60.83132 -3.36694 36063 ft 389 kts 296°
2026-05-04 14:34 60.85748 -3.46407 36056 ft 389 kts 296°
2026-05-04 14:35 60.88360 -3.56129 36062 ft 389 kts 296°
2026-05-04 14:35 60.90962 -3.65873 36069 ft 389 kts 296°
2026-05-04 14:36 60.93556 -3.75618 36065 ft 389 kts 296°
2026-05-04 14:36 60.96144 -3.85380 36065 ft 388 kts 296°
2026-05-04 14:37 60.98724 -3.95155 36064 ft 388 kts 296°
2026-05-04 14:37 61.01541 -4.04653 36057 ft 390 kts 301°
2026-05-04 14:38 61.04606 -4.13873 36061 ft 390 kts 301°
2026-05-04 14:38 61.07648 -4.23039 36062 ft 390 kts 301°
2026-05-04 14:39 61.10700 -4.32303 36063 ft 390 kts 301°
2026-05-04 14:39 61.13739 -4.41571 36065 ft 389 kts 301°
2026-05-04 14:40 61.18282 -4.55516 36069 ft 389 kts 301°
2026-05-04 14:40 61.21304 -4.64830 36071 ft 389 kts 301°
2026-05-04 14:41 61.24316 -4.74154 36075 ft 389 kts 300°
2026-05-04 14:42 61.30324 -4.92813 36075 ft 388 kts 300°
2026-05-04 14:42 61.33305 -5.02178 36075 ft 388 kts 300°
2026-05-04 14:43 61.36281 -5.11542 36074 ft 388 kts 300°
2026-05-04 14:43 61.39261 -5.20917 36074 ft 387 kts 300°
2026-05-04 14:44 61.42229 -5.30305 36078 ft 387 kts 300°
2026-05-04 14:44 61.45186 -5.39709 36078 ft 387 kts 300°
2026-05-04 14:45 61.48128 -5.49133 36079 ft 387 kts 300°
2026-05-04 14:45 61.51066 -5.58566 36078 ft 387 kts 300°
2026-05-04 14:46 61.53995 -5.68023 36076 ft 387 kts 300°
2026-05-04 14:46 61.56925 -5.77484 36077 ft 387 kts 300°
2026-05-04 14:47 61.59850 -5.86963 36076 ft 387 kts 300°
2026-05-04 14:47 61.62760 -5.96468 36076 ft 386 kts 300°
2026-05-04 14:48 61.65660 -6.05985 36070 ft 386 kts 300°
2026-05-04 14:48 61.68557 -6.15504 36069 ft 386 kts 300°
2026-05-04 14:49 61.71448 -6.25043 36065 ft 386 kts 300°
2026-05-04 14:49 61.74330 -6.34598 36066 ft 386 kts 300°
2026-05-04 14:50 61.77210 -6.44189 36069 ft 386 kts 300°
2026-05-04 14:50 61.80075 -6.53799 36063 ft 387 kts 299°
2026-05-04 14:51 61.82945 -6.63427 36062 ft 387 kts 300°
2026-05-04 14:51 61.85787 -6.73012 36060 ft 387 kts 299°
2026-05-04 14:52 61.88639 -6.82670 36056 ft 386 kts 299°
2026-05-04 14:52 61.91478 -6.92352 36051 ft 386 kts 299°
2026-05-04 14:53 61.94312 -7.02031 36049 ft 386 kts 299°
2026-05-04 14:53 61.97144 -7.11721 36050 ft 386 kts 299°
2026-05-04 14:54 61.99960 -7.21425 36051 ft 386 kts 299°
2026-05-04 14:54 62.02776 -7.31152 36049 ft 386 kts 299°
2026-05-04 14:55 62.05584 -7.40894 36051 ft 386 kts 299°
2026-05-04 14:55 62.08378 -7.50677 36048 ft 386 kts 299°
2026-05-04 14:56 62.11105 -7.60537 36054 ft 385 kts 297°
2026-05-04 14:56 62.13555 -7.70716 36054 ft 385 kts 295°
2026-05-04 14:57 62.15871 -7.81048 36055 ft 385 kts 294°
2026-05-04 14:57 62.18197 -7.91383 36072 ft 385 kts 295°
2026-05-04 14:58 62.20548 -8.01697 36076 ft 385 kts 295°
2026-05-04 14:58 62.22884 -8.11962 36084 ft 386 kts 295°
2026-05-04 14:59 62.25223 -8.22313 36090 ft 386 kts 295°
2026-05-04 15:00 62.28722 -8.37867 36082 ft 386 kts 295°
2026-05-04 15:00 62.31039 -8.48266 36086 ft 386 kts 294°
2026-05-04 15:01 62.34499 -8.63888 36091 ft 386 kts 294°
2026-05-04 15:01 62.36805 -8.74332 36085 ft 386 kts 294°
2026-05-04 15:02 62.39104 -8.84796 36092 ft 387 kts 294°
2026-05-04 15:02 62.41393 -8.95290 36094 ft 387 kts 294°
2026-05-04 15:03 62.43676 -9.05814 36100 ft 387 kts 294°
2026-05-04 15:03 62.45950 -9.16354 36105 ft 387 kts 294°
2026-05-04 15:04 62.48222 -9.26914 36109 ft 387 kts 294°
2026-05-04 15:04 62.50484 -9.37493 36103 ft 387 kts 294°
2026-05-04 15:05 62.52740 -9.48083 36112 ft 387 kts 294°
2026-05-04 15:05 62.54986 -9.58691 36117 ft 387 kts 294°
2026-05-04 15:06 62.57220 -9.69324 36111 ft 387 kts 294°
2026-05-04 15:07 62.60563 -9.85285 36116 ft 387 kts 294°
2026-05-04 15:07 62.62790 -9.95940 36112 ft 387 kts 294°
2026-05-04 15:08 62.64991 -10.06600 36113 ft 387 kts 294°
2026-05-04 15:08 62.67185 -10.17275 36111 ft 387 kts 294°
2026-05-04 15:09 62.69379 -10.27962 36109 ft 387 kts 294°
2026-05-04 15:09 62.71561 -10.38672 36114 ft 387 kts 294°
2026-05-04 15:10 62.74814 -10.54739 36116 ft 386 kts 294°
2026-05-04 15:11 62.77688 -10.69020 36113 ft 386 kts 293°
2026-05-04 15:11 62.79836 -10.79767 36117 ft 386 kts 293°
2026-05-04 15:12 62.81970 -10.90533 36119 ft 386 kts 293°
2026-05-04 15:12 62.84092 -11.01299 36117 ft 385 kts 293°
2026-05-04 15:13 62.86200 -11.12040 36119 ft 385 kts 293°
2026-05-04 15:13 62.88314 -11.22832 36118 ft 386 kts 293°
2026-05-04 15:14 62.90417 -11.33645 36127 ft 386 kts 293°
2026-05-04 15:14 62.92514 -11.44471 36130 ft 386 kts 293°
2026-05-04 15:15 62.94598 -11.55326 36129 ft 385 kts 293°
2026-05-04 15:15 62.96676 -11.66183 36124 ft 385 kts 293°
2026-05-04 15:16 62.99775 -11.82491 36130 ft 385 kts 292°
2026-05-04 15:17 63.02856 -11.98834 36130 ft 385 kts 292°
2026-05-04 15:17 63.05917 -12.15203 36130 ft 385 kts 292°
2026-05-04 15:18 63.07951 -12.26125 36134 ft 385 kts 292°
2026-05-04 15:19 63.10974 -12.42547 36137 ft 385 kts 292°
2026-05-04 15:19 63.13982 -12.58980 36138 ft 384 kts 292°
2026-05-04 15:20 63.15970 -12.69960 36139 ft 384 kts 292°
2026-05-04 15:20 63.17955 -12.80949 36137 ft 384 kts 292°
2026-05-04 15:21 63.19931 -12.91935 36136 ft 384 kts 292°
2026-05-04 15:22 63.22877 -13.08466 36139 ft 384 kts 292°
2026-05-04 15:22 63.25803 -13.25044 36151 ft 385 kts 291°
2026-05-04 15:23 63.27734 -13.36040 36148 ft 384 kts 291°
2026-05-04 15:23 63.29659 -13.47120 36147 ft 384 kts 291°
2026-05-04 15:24 63.33502 -13.69287 36152 ft 384 kts 291°
2026-05-04 15:25 63.35410 -13.80407 36150 ft 384 kts 291°
2026-05-04 15:26 63.38251 -13.97135 36155 ft 385 kts 291°
2026-05-04 15:26 63.41080 -14.13906 36157 ft 385 kts 291°
2026-05-04 15:27 63.43897 -14.30717 36159 ft 386 kts 291°
2026-05-04 15:28 63.46689 -14.47584 36168 ft 386 kts 291°
2026-05-04 15:29 63.49458 -14.64500 36169 ft 386 kts 291°
2026-05-04 15:30 63.55856 -15.04106 36179 ft 386 kts 291°
2026-05-04 15:31 63.58570 -15.21144 36178 ft 386 kts 291°
2026-05-04 15:32 63.63067 -15.49594 36181 ft 386 kts 290°
2026-05-04 15:34 63.67481 -15.78140 36182 ft 386 kts 290°
2026-05-04 15:34 63.70109 -15.95298 36180 ft 386 kts 290°
2026-05-04 15:35 63.72707 -16.12497 36181 ft 386 kts 290°
2026-05-04 15:36 63.75281 -16.29706 36185 ft 386 kts 290°
2026-05-04 15:36 63.76989 -16.41191 36184 ft 385 kts 290°
2026-05-04 15:37 63.78683 -16.52675 36182 ft 385 kts 290°
2026-05-04 15:37 63.80277 -16.64231 36182 ft 386 kts 283°
2026-05-04 15:38 63.80948 -16.76317 36183 ft 388 kts 279°
2026-05-04 15:38 63.81569 -16.88447 36184 ft 388 kts 279°
2026-05-04 15:39 63.82179 -17.00579 36182 ft 388 kts 279°
2026-05-04 15:40 63.83060 -17.18813 36192 ft 388 kts 279°
2026-05-04 15:40 63.83635 -17.30988 36194 ft 389 kts 279°
2026-05-04 15:41 63.84200 -17.43159 36196 ft 389 kts 279°
2026-05-04 15:41 63.84756 -17.55350 36199 ft 389 kts 279°
2026-05-04 15:42 63.85307 -17.67527 36199 ft 388 kts 279°
2026-05-04 15:42 63.85844 -17.79714 36200 ft 388 kts 279°
2026-05-04 15:43 63.86371 -17.91892 36202 ft 388 kts 278°
2026-05-04 15:43 63.86885 -18.04080 36203 ft 388 kts 278°
2026-05-04 15:44 63.87391 -18.16257 36143 ft 386 kts 278°
2026-05-04 15:44 63.87632 -18.22316 35690 ft 384 kts 278°
2026-05-04 15:44 63.87865 -18.28341 35241 ft 382 kts 278°
2026-05-04 15:44 63.88095 -18.34304 34890 ft 377 kts 278°
2026-05-04 15:45 63.88319 -18.40176 34578 ft 371 kts 278°
2026-05-04 15:45 63.88541 -18.45964 34258 ft 365 kts 278°
2026-05-04 15:45 63.88756 -18.51583 33870 ft 360 kts 278°
2026-05-04 15:45 63.88976 -18.57270 33428 ft 355 kts 279°
2026-05-04 15:46 63.89188 -18.62742 32983 ft 351 kts 279°
2026-05-04 15:46 63.89398 -18.68232 32538 ft 347 kts 279°
2026-05-04 15:46 63.89602 -18.73642 32117 ft 342 kts 279°
2026-05-04 15:46 63.89801 -18.78991 31667 ft 338 kts 279°
2026-05-04 15:47 63.89997 -18.84349 31229 ft 334 kts 279°
2026-05-04 15:47 63.90182 -18.89571 30793 ft 330 kts 279°
2026-05-04 15:47 63.90365 -18.94738 30356 ft 326 kts 279°
2026-05-04 15:47 63.90542 -18.99781 29837 ft 323 kts 279°
2026-05-04 15:48 63.90718 -19.04835 29359 ft 320 kts 279°
2026-05-04 15:48 63.90892 -19.09847 28871 ft 317 kts 279°
2026-05-04 15:48 63.91227 -19.19737 27921 ft 312 kts 279°
2026-05-04 15:49 63.91389 -19.24627 27445 ft 309 kts 279°
2026-05-04 15:49 63.91550 -19.29477 27010 ft 307 kts 279°
2026-05-04 15:49 63.91709 -19.34298 26574 ft 305 kts 279°
2026-05-04 15:49 63.91866 -19.39091 26200 ft 303 kts 279°
2026-05-04 15:50 63.92021 -19.43842 25799 ft 301 kts 279°
2026-05-04 15:50 63.92173 -19.48561 25384 ft 298 kts 279°
2026-05-04 15:50 63.92321 -19.53250 24958 ft 297 kts 279°
2026-05-04 15:50 63.92465 -19.57904 24525 ft 294 kts 279°
2026-05-04 15:51 63.92607 -19.62530 24071 ft 292 kts 279°
2026-05-04 15:51 63.92749 -19.67137 23633 ft 291 kts 279°
2026-05-04 15:51 63.92885 -19.71709 23153 ft 289 kts 279°
2026-05-04 15:51 63.93021 -19.76252 22660 ft 287 kts 279°
2026-05-04 15:52 63.93156 -19.80771 22179 ft 286 kts 279°
2026-05-04 15:52 63.93288 -19.85266 21708 ft 284 kts 279°
2026-05-04 15:52 63.93418 -19.89735 21242 ft 282 kts 279°
2026-05-04 15:52 63.93547 -19.94179 20799 ft 281 kts 279°
2026-05-04 15:53 63.93674 -19.98607 20344 ft 280 kts 279°
2026-05-04 15:53 63.93800 -20.03000 19897 ft 278 kts 279°
2026-05-04 15:53 63.93924 -20.07382 19444 ft 277 kts 279°
2026-05-04 15:53 63.94044 -20.11740 19008 ft 276 kts 279°
2026-05-04 15:54 63.94163 -20.16076 18581 ft 274 kts 279°
2026-05-04 15:54 63.94276 -20.20401 18076 ft 273 kts 279°
2026-05-04 15:54 63.94350 -20.23252 17738 ft 273 kts 279°
2026-05-04 15:54 63.94270 -20.27594 17230 ft 279 kts 268°
2026-05-04 15:55 63.93956 -20.31956 16719 ft 279 kts 268°
2026-05-04 15:55 63.93633 -20.36306 16257 ft 279 kts 268°
2026-05-04 15:55 63.93306 -20.40645 15789 ft 278 kts 268°
2026-05-04 15:55 63.92975 -20.44971 15351 ft 278 kts 267°
2026-05-04 15:56 63.92642 -20.49287 14912 ft 277 kts 267°
2026-05-04 15:56 63.92313 -20.53595 14474 ft 277 kts 267°
2026-05-04 15:56 63.91982 -20.57902 14057 ft 276 kts 267°
2026-05-04 15:56 63.91647 -20.62196 13574 ft 276 kts 266°
2026-05-04 15:57 63.91310 -20.66491 13089 ft 276 kts 266°
2026-05-04 15:57 63.90971 -20.70792 12609 ft 277 kts 266°
2026-05-04 15:57 63.90630 -20.75097 12129 ft 277 kts 265°
2026-05-04 15:57 63.90286 -20.79408 11676 ft 277 kts 265°
2026-05-04 15:58 63.89944 -20.83721 11223 ft 278 kts 265°
2026-05-04 15:58 63.89601 -20.88037 10778 ft 278 kts 264°
2026-05-04 15:58 63.89255 -20.92365 10347 ft 279 kts 264°
2026-05-04 15:58 63.88908 -20.96637 10210 ft 270 kts 264°
2026-05-04 15:59 63.88568 -21.00799 10218 ft 268 kts 264°
2026-05-04 15:59 63.88232 -21.04946 10226 ft 268 kts 264°
2026-05-04 15:59 63.87896 -21.09102 10217 ft 268 kts 264°
2026-05-04 15:59 63.87557 -21.13256 10227 ft 268 kts 264°
2026-05-04 16:00 63.87214 -21.17406 10225 ft 268 kts 264°
2026-05-04 16:00 63.86871 -21.21560 10223 ft 267 kts 264°
2026-05-04 16:00 63.86529 -21.25697 10224 ft 267 kts 264°
2026-05-04 16:00 63.86187 -21.29835 10227 ft 267 kts 264°
2026-05-04 16:01 63.85843 -21.33977 10221 ft 267 kts 264°
2026-05-04 16:01 63.85497 -21.38118 10225 ft 267 kts 264°
2026-05-04 16:01 63.85151 -21.42256 10226 ft 267 kts 264°
2026-05-04 16:01 63.84805 -21.46395 10225 ft 267 kts 264°
2026-05-04 16:02 63.84456 -21.50531 10233 ft 267 kts 263°
2026-05-04 16:02 63.84103 -21.54669 10233 ft 267 kts 263°
2026-05-04 16:02 63.83396 -21.62943 10233 ft 267 kts 264°
2026-05-04 16:03 63.83045 -21.67072 10233 ft 267 kts 263°
2026-05-04 16:03 63.82690 -21.71201 10236 ft 267 kts 263°
2026-05-04 16:03 63.82334 -21.75324 10233 ft 267 kts 263°
2026-05-04 16:03 63.81974 -21.79452 10236 ft 267 kts 263°
2026-05-04 16:04 63.81617 -21.83561 10055 ft 265 kts 263°
2026-05-04 16:04 63.80902 -21.91727 9235 ft 264 kts 263°
2026-05-04 16:04 63.80544 -21.95796 8824 ft 264 kts 263°
2026-05-04 16:05 63.80184 -21.99858 8438 ft 263 kts 262°
2026-05-04 16:05 63.79823 -22.03912 8054 ft 263 kts 262°
2026-05-04 16:05 63.79111 -22.11907 7389 ft 248 kts 262°
2026-05-04 16:06 63.78772 -22.15676 7091 ft 242 kts 262°
2026-05-04 16:06 63.77885 -22.25536 5961 ft 240 kts 262°
2026-05-04 16:07 63.77440 -22.30478 5360 ft 239 kts 262°
2026-05-04 16:07 63.77304 -22.41408 4051 ft 229 kts 293°
2026-05-04 16:08 63.77847 -22.44688 3860 ft 215 kts 294°
2026-05-04 16:08 63.79335 -22.53915 2709 ft 207 kts 294°
2026-05-04 16:09 63.80643 -22.59147 2528 ft 177 kts 324°
2026-05-04 16:09 63.82903 -22.60560 2512 ft 170 kts 360°
2026-05-04 16:10 63.85117 -22.60554 2458 ft 151 kts 360°
2026-05-04 16:11 63.88116 -22.60551 1978 ft 139 kts 360°
2026-05-04 16:11 63.89081 -22.60550 1773 ft 138 kts 360°
2026-05-04 16:12 63.91949 -22.60566 1182 ft 137 kts 359°
2026-05-04 16:12 63.94805 -22.60540 558 ft 136 kts 360°
2026-05-04 16:13 63.96709 -22.60537 211 ft 136 kts
2026-05-04 16:13 63.98150 -22.60541 172 ft 63 kts 360°
2026-05-04 16:14 63.98943 -22.60536 173 ft 52 kts 359°
2026-05-04 16:14 63.99174 -22.60817 164 ft 17 kts 266°
2026-05-04 16:15 63.99173 -22.61808 142 ft 21 kts 270°
2026-05-04 16:16 63.99233 -22.62003 140 ft 6 kts 308°
2026-05-04 16:16 63.99281 -22.62192 140 ft 0 kts 315°